Flag for South Africa Weather past 2 weeks in Bloemfontein, South Africa

Now
61 °F

Partly sunny.


Feels Like: 61 °F
Forecast: 43 / 71 °F
Wind: 21 mph from West

Location: Bloemfontein Airport

Current Time: Sep 30, 2014 at 2:07:01 PM

Latest Report: Sep 30, 2014 at 12:00 PM


Visibility: N/A

Pressure: 30.07 "Hg

Humidity: 27%

Dew point: 27 °F

Location of BloemfonteinLocation

Historic Weather in Bloemfontein — Graph

°F

Bloemfontein temperature yesterday

Maximum temperature yesterday: 75 °F (at 1:00 PM)
Minimum temperature yesterday: 46 °F (at 6:00 AM)
Average temperature yesterday: 63 °F

Past Weeks' High & Low Weather Summary

 TemperatureHumidityPressure
High90 °F (Sep 15, 3:00 PM)82% (Sep 21, 6:00 AM)30.39 "Hg (Sep 21, 6:00 AM)
Low32 °F (Sep 19, 6:00 AM)8% (Sep 19, 2:00 PM)29.92 "Hg (Sep 18, 12:00 AM)
Average65 °F33%30.16 "Hg
* Reported Sep 15 12:00 Noon — Sep 30 12:00 Noon, Bloemfontein, Weather by CustomWeather, © 2014

Note: Actual official high and low records may vary slightly from our data, if they occured in-between our weather recording intervals... More about our weather records

Advertising

Bloemfontein weather history for previous 24 hours

 ConditionsComfort  
Time TempWeatherWind HumidityBarometerVisibility
12:00 PM
Sep 30
61 °FPartly sunny.21 mph27%30.07 "HgN/A
11:00 AM63 °FScattered clouds.15 mph15%30.07 "HgN/A
10:00 AM61 °FPassing clouds.15 mph20%30.04 "HgN/A
9:00 AM59 °FPassing clouds.14 mph21%30.04 "HgN/A
8:00 AM55 °FSunny.5 mph21%30.07 "Hg10 mi
7:00 AM43 °FSunny.3 mph34%30.04 "Hg10 mi
6:00 AM36 °FSunny.5 mph44%30.01 "Hg10 mi
5:00 AM41 °FSunny.3 mph39%30.01 "Hg10 mi
2:00 AM43 °FQuite cool.3 mph29%30.04 "HgN/A
11:00 PM
Sep 29
52 °FCool.2 mph19%30.07 "HgN/A
8:00 PM59 °FClear.6 mph17%30.01 "Hg10 mi
7:00 PM64 °FClear.9 mph15%30.01 "Hg10 mi
6:00 PM70 °FClear.14 mph15%30.01 "Hg10 mi
5:00 PM73 °FSunny.10 mph9%30.04 "Hg10 mi
4:00 PM75 °FPassing clouds.15 mph13%29.98 "HgN/A
3:00 PM75 °FPassing clouds.16 mph13%30.01 "HgN/A
2:00 PM73 °FSunny.17 mph10%30.07 "Hg10 mi
Weather by CustomWeather, © 2014

See weather overviewHow to use our weather pages